Satellite: MET-2/21 Catalog number: 22782 Epoch time: 10229.97495912 Element set: 0860 Inclination: 082.5470 deg RA of node: 203.4179 deg Eccentricity: 0.0021037 Arg of perigee: 226.5813 deg Mean anomaly: 133.3607 deg Mean motion: 13.83645747 rev/day Decay rate: -5.0e-08 rev/day^2 Epoch rev: 85662 Checksum: 308
Satellite: OKEAN-4 Catalog number: 23317 Epoch time: 10229.79595068 Element set: 314 Inclination: 082.5412 deg RA of node: 296.3586 deg Eccentricity: 0.0023502 Arg of perigee: 042.4294 deg Mean anomaly: 317.8723 deg Mean motion: 14.82848301 rev/day Decay rate: 1.44e-06 rev/day^2 Epoch rev: 85558 Checksum: 309
Satellite: NOAA-14 Catalog number: 23455 Epoch time: 10229.85464150 Element set: 0164 Inclination: 098.8758 deg RA of node: 310.1613 deg Eccentricity: 0.0010267 Arg of perigee: 062.8323 deg Mean anomaly: 297.3899 deg Mean motion: 14.13791522 rev/day Decay rate: -1.9e-07 rev/day^2 Epoch rev: 80621 Checksum: 303
Satellite: NOAA-15 Catalog number: 25338 Epoch time: 10230.37157681 Element set: 489 Inclination: 098.6238 deg RA of node: 216.1962 deg Eccentricity: 0.0009605 Arg of perigee: 253.3491 deg Mean anomaly: 106.6655 deg Mean motion: 14.24848425 rev/day Decay rate: -2.4e-07 rev/day^2 Epoch rev: 63760 Checksum: 313
Satellite: RESURS Catalog number: 25394 Epoch time: 10229.82078672 Element set: 580 Inclination: 098.3045 deg RA of node: 244.5449 deg Eccentricity: 0.0002491 Arg of perigee: 054.1532 deg Mean anomaly: 305.9873 deg Mean motion: 14.24207838 rev/day Decay rate: -5.0e-08 rev/day^2 Epoch rev: 62912 Checksum: 298
Satellite: FENGYUN1 Catalog number: 25730 Epoch time: 10230.83096284 Element set: 115 Inclination: 098.7877 deg RA of node: 194.1593 deg Eccentricity: 0.0023421 Arg of perigee: 087.1532 deg Mean anomaly: 273.2330 deg Mean motion: 14.08249695 rev/day Decay rate: 4.59e-06 rev/day^2 Epoch rev: 58050 Checksum: 300
Satellite: OKEAN-0 Catalog number: 25860 Epoch time: 10230.47667167 Element set: 75 Inclination: 097.8383 deg RA of node: 201.0782 deg Eccentricity: 0.0000632 Arg of perigee: 093.2857 deg Mean anomaly: 266.8415 deg Mean motion: 14.73655656 rev/day Decay rate: 5.6e-07 rev/day^2 Epoch rev: 59607 Checksum: 315
Satellite: NOAA-16 Catalog number: 26536 Epoch time: 10230.34612962 Element set: 967 Inclination: 099.1697 deg RA of node: 249.2777 deg Eccentricity: 0.0010777 Arg of perigee: 158.6253 deg Mean anomaly: 201.5382 deg Mean motion: 14.12570925 rev/day Decay rate: -1.92e-06 rev/day^2 Epoch rev: 51060 Checksum: 313
Satellite: NOAA-17 Catalog number: 27453 Epoch time: 10229.75134905 Element set: 0959 Inclination: 098.4253 deg RA of node: 277.7009 deg Eccentricity: 0.0011016 Arg of perigee: 321.6063 deg Mean anomaly: 038.4345 deg Mean motion: 14.24181879 rev/day Decay rate: 5.8e-07 rev/day^2 Epoch rev: 42346 Checksum: 308
Satellite: NOAA-18 Catalog number: 28654 Epoch time: 10229.76393479 Element set: 0445 Inclination: 098.9526 deg RA of node: 175.8605 deg Eccentricity: 0.0013484 Arg of perigee: 238.7114 deg Mean anomaly: 121.2742 deg Mean motion: 14.11381964 rev/day Decay rate: 4.48e-06 rev/day^2 Epoch rev: 27012 Checksum: 321
Satellite: NOAA-19 Catalog number: 33591 Epoch time: 10229.76544613 Element set: 0643 Inclination: 098.7901 deg RA of node: 170.5845 deg Eccentricity: 0.0015012 Arg of perigee: 113.0771 deg Mean anomaly: 247.2025 deg Mean motion: 14.11074991 rev/day Decay rate: 9.0e-07 rev/day^2 Epoch rev: 07859 Checksum: 295
/EX SB KEPS @ AMSAT $ORB10230.M Orbital Elements 10230.MISC
HR AMSAT ORBITAL ELEMENTS FOR MANNED AND MISCELLANEOUS SATELLITES FROM WA5QGD FORT WORTH,TX August 18, 2010 Send Subscribe/unsubscribe to KEPS at http://www.amsat.org/mailman/listinfo/keps BID: ORB10230.M TO ALL RADIO AMATEURS BT
Satellite: HUBBLE Catalog number: 20580 Epoch time: 10230.21707886 Element set: 629 Inclination: 028.4680 deg RA of node: 194.9063 deg Eccentricity: 0.0003678 Arg of perigee: 141.1071 deg Mean anomaly: 218.9781 deg Mean motion: 15.01017702 rev/day Decay rate: 5.08e-06 rev/day^2 Epoch rev: 91408 Checksum: 280
Satellite: ISS Catalog number: 25544 Epoch time: 10230.69424966 Element set: 729 Inclination: 051.6460 deg RA of node: 270.7321 deg Eccentricity: 0.0005761 Arg of perigee: 240.7464 deg Mean anomaly: 217.5417 deg Mean motion: 15.71898830 rev/day Decay rate: 1.3402e-04 rev/day^2 Epoch rev: 67330 Checksum: 293
Satellite: CO-58 Catalog number: 28895 Epoch time: 10229.18613557 Element set: 0660 Inclination: 098.0048 deg RA of node: 111.6152 deg Eccentricity: 0.0019135 Arg of perigee: 094.3512 deg Mean anomaly: 265.9862 deg Mean motion: 14.59921001 rev/day Decay rate: 7.2e-07 rev/day^2 Epoch rev: 25588 Checksum: 314
Satellite: FALCON Catalog number: 30776 Epoch time: 10230.56030999 Element set: 894 Inclination: 035.4341 deg RA of node: 025.5858 deg Eccentricity: 0.0001820 Arg of perigee: 335.1792 deg Mean anomaly: 024.8834 deg Mean motion: 15.03770964 rev/day Decay rate: 9.37e-06 rev/day^2 Epoch rev: 18945 Checksum: 311
Satellite: MAST Catalog number: 31126 Epoch time: 10230.44935067 Element set: 940 Inclination: 097.9320 deg RA of node: 269.2274 deg Eccentricity: 0.0095248 Arg of perigee: 033.3914 deg Mean anomaly: 327.3246 deg Mean motion: 14.53611594 rev/day Decay rate: 9.1e-07 rev/day^2 Epoch rev: 17710 Checksum: 285
Satellite: CAPE1 Catalog number: 31130 Epoch time: 10230.63007204 Element set: 961 Inclination: 097.9337 deg RA of node: 266.6847 deg Eccentricity: 0.0103617 Arg of perigee: 041.0230 deg Mean anomaly: 319.8690 deg Mean motion: 14.52210389 rev/day Decay rate: -2.8e-07 rev/day^2 Epoch rev: 17672 Checksum: 273
Satellite: COMPASS Catalog number: 32787 Epoch time: 10230.28859440 Element set: 752 Inclination: 097.8902 deg RA of node: 294.1786 deg Eccentricity: 0.0016999 Arg of perigee: 084.2133 deg Mean anomaly: 276.0996 deg Mean motion: 14.81941063 rev/day Decay rate: 6.85e-06 rev/day^2 Epoch rev: 12469 Checksum: 340
Satellite: AAUSAT2 Catalog number: 32788 Epoch time: 10230.42062069 Element set: 744 Inclination: 097.8900 deg RA of node: 294.4507 deg Eccentricity: 0.0016747 Arg of perigee: 083.6990 deg Mean anomaly: 276.6123 deg Mean motion: 14.82087270 rev/day Decay rate: 6.48e-06 rev/day^2 Epoch rev: 12472 Checksum: 313
Satellite: DO-64 Catalog number: 32789 Epoch time: 10229.68032554 Element set: 0764 Inclination: 097.8961 deg RA of node: 294.2645 deg Eccentricity: 0.0016775 Arg of perigee: 084.6631 deg Mean anomaly: 275.6536 deg Mean motion: 14.82260852 rev/day Decay rate: 8.96e-06 rev/day^2 Epoch rev: 12461 Checksum: 348
Satellite: CO-66 Catalog number: 32791 Epoch time: 10230.65740715 Element set: 746 Inclination: 097.8912 deg RA of node: 294.5487 deg Eccentricity: 0.0017253 Arg of perigee: 080.6674 deg Mean anomaly: 279.6491 deg Mean motion: 14.81713513 rev/day Decay rate: 3.2e-07 rev/day^2 Epoch rev: 12470 Checksum: 318
Satellite: RS-30 Catalog number: 32953 Epoch time: 10230.74996604 Element set: 962 Inclination: 082.5054 deg RA of node: 350.7712 deg Eccentricity: 0.0018147 Arg of perigee: 329.1960 deg Mean anomaly: 030.8056 deg Mean motion: 12.43007232 rev/day Decay rate: 1.0e-07 rev/day^2 Epoch rev: 10151 Checksum: 259
Satellite: TACSAT-3 Catalog number: 35001 Epoch time: 10229.95824531 Element set: 0367 Inclination: 040.4544 deg RA of node: 202.9115 deg Eccentricity: 0.0020116 Arg of perigee: 105.7772 deg Mean anomaly: 254.5283 deg Mean motion: 15.42354096 rev/day Decay rate: 6.386e-05 rev/day^2 Epoch rev: 07017 Checksum: 274
Satellite: PHARMSAT Catalog number: 35002 Epoch time: 10229.30945813 Element set: 0348 Inclination: 040.4682 deg RA of node: 204.6113 deg Eccentricity: 0.0022769 Arg of perigee: 105.5480 deg Mean anomaly: 254.7852 deg Mean motion: 15.42814715 rev/day Decay rate: 5.349e-05 rev/day^2 Epoch rev: 07009 Checksum: 278
Satellite: HAWKSAT1 Catalog number: 35003 Epoch time: 10229.27978367 Element set: 0367 Inclination: 040.4576 deg RA of node: 197.6807 deg Eccentricity: 0.0020616 Arg of perigee: 123.9326 deg Mean anomaly: 236.3453 deg Mean motion: 15.46476495 rev/day Decay rate: 1.2117e-04 rev/day^2 Epoch rev: 07017 Checksum: 307
Satellite: CP6 Catalog number: 35004 Epoch time: 10229.95007333 Element set: 0372 Inclination: 040.4579 deg RA of node: 192.1794 deg Eccentricity: 0.0019585 Arg of perigee: 133.7143 deg Mean anomaly: 226.5363 deg Mean motion: 15.47540830 rev/day Decay rate: 1.4672e-04 rev/day^2 Epoch rev: 07028 Checksum: 294
Satellite: AEROCUB3 Catalog number: 35005 Epoch time: 10229.94384004 Element set: 0413 Inclination: 040.4681 deg RA of node: 186.2070 deg Eccentricity: 0.0018201 Arg of perigee: 159.7530 deg Mean anomaly: 200.4096 deg Mean motion: 15.55530400 rev/day Decay rate: 4.9528e-04 rev/day^2 Epoch rev: 07035 Checksum: 258
Satellite: CASTOR Catalog number: 35694 Epoch time: 10230.44082147 Element set: 655 Inclination: 051.5930 deg RA of node: 222.0149 deg Eccentricity: 0.0004218 Arg of perigee: 308.0851 deg Mean anomaly: 053.0105 deg Mean motion: 16.48877011 rev/day Decay rate: 7.179566e-02 rev/day^2 Epoch rev: 6110 Checksum: 273
Satellite: METEOR-M Catalog number: 35865 Epoch time: 10230.76503089 Element set: 571 Inclination: 098.7533 deg RA of node: 284.1001 deg Eccentricity: 0.0002036 Arg of perigee: 165.2857 deg Mean anomaly: 194.8318 deg Mean motion: 14.21831251 rev/day Decay rate: 1.76e-06 rev/day^2 Epoch rev: 4761 Checksum: 284
Satellite: RS-38 Catalog number: 35869 Epoch time: 10230.80009872 Element set: 584 Inclination: 098.7513 deg RA of node: 284.1711 deg Eccentricity: 0.0004375 Arg of perigee: 175.0470 deg Mean anomaly: 185.0716 deg Mean motion: 14.21986965 rev/day Decay rate: 1.77e-06 rev/day^2 Epoch rev: 4762 Checksum: 322
/EX
participants (1)
-
Ray Hoad